Location: Carrières
(48.9495°N, 2.0407°E)
Time: 16:11:19
(UTC+00:00)

Vanguard 1 Rocket - Visible Passes

Search period start: 13 April 2024 00:00
Search period end: 23 April 2024 00:00
Orbit: 652 x 4220 km, 34.3° (Epoch: 12 April)

Date Brightness Start Highest point End Pass type
(mag) Time Alt. Az. Time Alt. Az. Time Alt. Az.
13 Apr 10.6 02:17:10 27° SSW 02:17:10 27° SSW 02:32:35 10° SSE visible
13 Apr 9.2 20:03:34 10° SSW 20:09:33 27° SSE 20:15:39 17° ESE visible
13 Apr 9.4 22:25:48 10° WSW 22:53:27 - ESE 22:32:51 38° SSW visible
14 Apr 10.7 01:10:49 23° SSE 01:10:49 23° SSE 01:19:31 10° SSE visible
14 Apr 11.0 03:28:11 15° SW 03:29:20 15° SW 03:40:23 10° SSW visible
14 Apr 9.2 21:15:08 10° SW 21:22:22 36° SSE 21:24:52 33° SE visible
14 Apr 10.0 23:38:38 10° WSW 00:04:27 11° SE 00:05:21 10° SE visible
15 Apr 11.0 02:21:50 19° SSW 02:21:50 19° SSW 02:30:42 10° S visible
15 Apr 9.1 20:04:53 10° SW 20:10:43 28° SSE 20:16:51 17° ESE visible
15 Apr 9.4 22:27:28 10° WSW 22:34:02 35° SSW 22:34:02 35° SSW visible
16 Apr 10.7 01:15:25 14° SSE 01:15:25 14° SSE 01:18:29 10° SSE visible
16 Apr 9.2 21:16:43 10° SW 21:23:38 35° S 21:25:59 32° SSE visible
16 Apr 10.1 23:40:29 10° WSW 00:08:56 - SE 23:43:10 19° WSW visible
17 Apr 11.3 02:26:17 11° S 02:26:17 11° S 02:27:52 10° S visible
17 Apr 9.0 20:06:20 10° SW 20:11:57 29° SSE 20:17:54 17° ESE visible
17 Apr 9.5 22:29:13 10° WSW 22:35:05 31° SSW 22:35:05 31° SSW visible
18 Apr10.801:19:43SSE01:19:43SSE00:52:17Wvisible
18 Apr 9.2 21:18:22 10° WSW 21:24:57 32° S 21:27:00 30° SSE visible
18 Apr 10.2 23:42:32 10° WSW 23:44:11 15° WSW 23:44:11 15° WSW visible
19 Apr 9.0 20:07:52 10° SW 20:13:15 28° SSE 20:18:54 17° SE visible
19 Apr 9.6 22:31:06 10° WSW 22:36:05 26° SSW 22:36:05 26° SSW visible
20 Apr10.901:23:33SSE01:23:33SSE00:53:17Wvisible
20 Apr 9.2 21:20:08 10° WSW 21:26:19 29° S 21:27:59 28° SSE visible
20 Apr 10.4 23:44:54 10° WSW 23:45:11 11° WSW 23:45:11 11° WSW visible
21 Apr 9.0 20:09:30 10° SW 20:14:37 27° S 20:19:54 16° SE visible
21 Apr 9.7 22:33:09 10° WSW 22:37:05 21° SW 22:37:05 21° SW visible
22 Apr 9.3 21:22:00 10° WSW 21:27:42 25° S 21:29:00 24° S visible
